Regional Weather Roundup
Issued by NWS Grand Forks, ND

Home | Current Version | Previous Version | Graphics & Text | Print | Product List | Glossary On
Versions: 1 2 3 4 5 6 7 8 9 10 11 12 13 14 15 16 17 18 19 20 21 22 23 24 25 26 27 28 29 30 31 32 33 34 35 36 37 38 39 40 41 42 43 44 45 46 47 48 49 50
789
ASUS43 KFGF 201531
RWRFGF
PRAIRIE TO PINES  WEATHER ROUNDUP
NATIONAL WEATHER SERVICE EASTERN NORTH DAKOTA/GRAND FORKS ND
900 AM CST MON NOV 20 2017

 **SATELLITE DATA USED TO AUGMENT SKY COVER AT AUTOMATED STATIONS**
 *****  WEATHER ACROSS EASTERN NORTH DAKOTA  *****

CITY           SKY/WX    TMP DP  RH WIND       PRES   REMARKS
GRAND FORKS    CLOUDY    30  27  88 S14       29.35F WCI  19
GRAND FRKS AFB CLOUDY    33  26  76 S12       29.34F WCI  24
DEVILS LAKE    FAIR      33  25  72 SW8       29.33F
FARGO          FAIR      34  24  67 S12       29.43F
WAHPETON ARPT  NOT AVBL
$$

 ***** WEATHER ACROSS CENTRAL AND WESTERN NORTH DAKOTA  *****

CITY           SKY/WX    TMP DP  RH WIND       PRES   REMARKS
BISMARCK       FAIR      34  24  67 CALM      29.43F
MINOT          MOCLDY    43  21  41 SW16      29.33F
JAMESTOWN      FAIR      34  24  67 SW8       29.39F
MINOT AFB      FAIR      38  23  53 W14       29.32S
GARRISON         N/A     36  27  69 W13       29.38S
WILLISTON      CLOUDY    36  22  56 SW6       29.40R
DICKINSON      FAIR      40  18  41 W14       29.43S
HETTINGER      FAIR      39  15  37 CALM      29.50S
$$

 *****  OTHER AIRPORT OBSERVATIONS IN OUR AREA  *****

CITY           SKY/WX    TMP DP  RH WIND       PRES   REMARKS
WALHALLA       FAIR      36  25  64 W12G18    29.27F
GRAFTON AIRPOR FAIR      30  28  93 S13       29.35F WCI  20
VALLEY CITY AR FAIR      28  28 100 SW7       29.42S WCI  21
CANDO          FAIR      30  28  93 W9        29.32S WCI  22
CAVALIER APRT  FAIR      30  25  80 S7        29.29F WCI  23
GWINNER          N/A     34  25  69 SW15      29.43F WCI  24
SHEYENNE NWR     N/A     32  26  79 SW10      29.95S WCI  24
ROLLA          FAIR      28  23  80 SW10      29.29S WCI  19
 ***** THE ABOVE OBSERVATIONS ARE NON NWS ARE NOT QUALITY
       CONTROLLED AND MAY MIS-REPORT RAIN FOR SNOW...
$$

  *****  WEATHER ACROSS NORTHERN MINNESOTA  *****

CITY           SKY/WX    TMP DP  RH WIND       PRES   REMARKS
FLAG ISLAND    FAIR      27  21  80 S20       29.33F WCI  13
WARROAD        FAIR      34  27  75 S10       29.34F
ROSEAU         FAIR      36  28  75 S20G26    29.32F
HALLOCK        FAIR      30  27  86 S18       29.31F WCI  18
THF RVR FALLS  FAIR      33  26  75 S15       29.38F WCI  23
BAUDETTE       PTSUNNY   26  22  84 SE7       29.39F WCI  18
WASKISH        FAIR      34  25  69 S9G16     29.41F
CROOKSTON      FAIR      34  27  75 S14       29.38F WCI  24
STEPHEN NDAWN    N/A     30  25  80 S17         N/A  WCI  18
GREENBUSH NDAW   N/A     32  25  74 S14         N/A  WCI  22
$$
  *****  WEATHER ACROSS CENTRAL AND WEST MINNESOTA  *****

CITY           SKY/WX    TMP DP  RH WIND       PRES   REMARKS
FOSSTON        FAIR      36  23  60 S12       29.40F
BEMIDJI        FAIR      29  26  89 SE5       29.42F WCI  24
PARK RAPIDS    FAIR      29  24  82 S10       29.45F WCI  20
ELBOW LAKE     FAIR      32  26  79 SE12      29.47F WCI  23
WADENA         FAIR      36  27  69 S14       29.45F
DETROIT LAKES  FAIR      34  28  80 S10       29.44F
MOORHEAD       FAIR      30  25  80 S10       29.44S WCI  21
FERGUS FALLS   FAIR      34  27  75 S10       29.49F
MORRIS MN      FAIR      30  27  86 S13       29.47F WCI  20
STAPLES        FAIR      30  27  86 S8        29.48F WCI  23
$$
  *****  WEATHER ELSEWHERE ACROSS MINNESOTA  *****

CITY           SKY/WX    TMP DP  RH WIND       PRES   REMARKS
DULUTH         FAIR      25  25 100 SE7       29.56F WCI  17
INTRNTL FALLS  CLOUDY    23  19  85 SE8       29.46F FOG     WCI  14
ELY            FAIR      28  25  86 SE8       29.52F WCI  20
CLOQUET        FAIR      25  19  80 SE5       29.55F WCI  19
WHEATON        FAIR      34  25  69 S9        29.48F
BRAINERD       FAIR      31  25  78 SE5       29.51F
HIBBING        PTSUNNY   22  20  92 SE3       29.53F
ALEXANDRIA     FAIR      34  26  72 S12       29.50F
SAINT CLOUD    FAIR      30  27  88 SE5       29.56F
MINNEAPOLIS    PTSUNNY   34  28  79 SE8       29.61F
$$

  *****  WEATHER ACROSS SOUTH DAKOTA  *****

CITY           SKY/WX    TMP DP  RH WIND       PRES   REMARKS
SIOUX FALLS    PTSUNNY   35  26  69 S5        29.59F
BROOKINGS      NOT AVBL
WATERTOWN      FAIR      28  24  85 S10       29.51F WCI  19
HURON          FAIR      28  22  78 CALM      29.56S
SISSETON         N/A     39  26  59 S6        29.46F
ABERDEEN       FAIR      27  24  89 S8        29.50F WCI  19
MITCHELL       FAIR      33  24  69 S8        29.58F
PIERRE         FAIR      35  22  58 CALM      29.53F
MOBRIDGE       FAIR      33  26  75 S8        29.47S
RAPID CITY     FAIR      37  20  50 CALM      29.57S
$$

  *****  SOME WEATHER IN NEARBY STATES *****

CITY           SKY/WX    TMP DP  RH WIND       PRES   REMARKS
GLASGOW MT     FAIR      41  18  39 W10       29.46R
GREAT FALLS MT FAIR      42  25  50 SW15      29.62R
CHEYENNE WY    FAIR      49  -3  11 S10G18    29.83S
SCOTTSBLUFF NE FAIR      54   5  14 W21G29    29.70F
OMAHA NE       PTSUNNY   42  26  53 S13       29.73F
DES MOINES IA  FAIR      44  28  53 S16       29.77F
DAVENPORT IA   FAIR      41  28  60 SW14G22   29.89F
CHICAGO IL     FAIR      39  26  59 SW17G24   29.91F
EAU CLAIRE WI  FAIR      32  27  81 S8        29.67F WCI  25
LA CROSSE WI   FAIR      38  28  67 S9        29.74F
$$

  *****  SOME NATIONAL WEATHER *****

CITY           SKY/WX    TMP DP  RH WIND       PRES   REMARKS
LA GUARDIA NY  PTSUNNY   41  24  51 W14G23    30.04S
RALEIGH NC     FAIR      45  27  49 VRB6      30.28R
ATLANTA GA     FAIR      46  29  51 E3        30.24R
NEW ORLEANS LA PTSUNNY   53  40  61 E9        30.25R
OKLAHOMA CITY  FAIR      44  30  57 S18       30.05F
ALBUQUERQUE NM CLOUDY    33   7  33 NE6       30.20R
SALT LAKE CITY MOCLDY    37  32  82 CALM      30.06S
LOS ANGELES CA MOCLDY    57  34  41 CALM      30.03R
BOISE ID       CLOUDY    47  30  51 SW6       29.95R
SEATTLE WA     RAIN      48  47  96 NW8       29.51R FOG
$$

*** WEATHER ACROSS MANITOBA...SASKATCHEWAN AND ONTARIO ***
                ***ONTARIO***

CITY           SKY/WX    TMP DP  RH WIND       PRES   REMARKS
GERALDTON      PTSUNNY    5   1  85 SW2       29.66F
THUNDER BAY    CLOUDY    12  10  92 SW2       29.68F
SIOUX LOOKOUT  CLOUDY    16  12  86 SE10      29.49F WCI   3
TORONTO        PTSUNNY   36  25  64 SW14G22   29.95S
BIG TROUT LK   PTCLDY     5   1  85 W7        29.57F WCI  -7
PICKLE LAKE    CLOUDY     5   1  85 S6        29.55F WCI  -6
DRYDEN         CLOUDY    19  18  93 SE14G20   29.42F WCI   6
KENORA         CLOUDY    23  19  86 SE12      29.35F WCI  12
$$
                *** MANITOBA***

CITY           SKY/WX    TMP DP  RH WIND       PRES   REMARKS
BRANDON        MOCLDY    27  21  80 SW9       29.21F WCI  17
DAUPHIN        CLOUDY    18  16  93 W8        29.20F WCI   7
ISLAND LAKE    FLURRIES   7   3  85 E7        29.52F WCI  -5
PILOT MOUND      N/A     28  23  80 SW10        N/A  WCI  19
THE PAS        LGT SNOW   9   3  78 E13G20    29.36R VSB 1   WCI  -7
THOMPSON       MOCLDY    -4  -9  77 NE2       29.56S
WINNIPEG       CLOUDY    28  23  80 S15       29.25F WCI  17
LYNN LAKE      CLOUDY    -4  -8  84 NE7       29.53R WCI -18
CHURCHILL      FLURRIES  19  18  93 NW12      29.55F WCI   7
GILLAM         CLOUDY     1  -2  85 NW8       29.58  WCI -12
$$
                ***SASKATCHEWAN***

CITY           SKY/WX    TMP DP  RH WIND       PRES   REMARKS
ESTEVAN        CLOUDY    36  23  60 W13       29.30R
KINDERSLEY     CLOUDY    18  10  73 NW22G33   29.53R WCI   0
LLOYDMINSTER   FLURRIES   9   3  78 NW22      29.54R WCI -11
PRINCE ALBERT  LGT SNOW  14  12  92 W7        29.42R WCI   4
REGINA         MOCLDY    36  28  75 NW20G26   29.28R
YORKTON        CLOUDY    28  25  86 NW9G21    29.20R WCI  20
N. BATTLEFORD  CLEAR     12   5  73 NW21G28   29.53R WCI  -6
LA RONGE       LGT SNOW   9   5  85 N5        29.43R WCI   0
SASKATOON      CLOUDY    18  14  86 NW16G22   29.43R WCI   3
SWIFT CURRENT  CLOUDY    25  21  86 NW25G36   29.44R WCI   9
$$
NOTE: THESE ARE AUTOMATED STATIONS WITH LIMITED QUALITY CONTROL
      "FAIR" INDICATES FEW OR NO CLOUDS BELOW 12,000 FEET WITH NO
      SIGNIFICANT WEATHER AND/OR OBSTRUCTIONS TO VISIBILITY.
      SKY/WX - SKY CONDITION AND SIGNIFICANT WEATHER.
      TMP - AIR TEMPERATURE.    DP   - DEWPOINT TEMPERATURE.
      RH  - RELATIVE HUMIDITY.  PRES - PRESSURE.
      HX  - HEAT INDEX.         WCI  - WIND CHILL INDEX.
$




USA.gov is the U.S. government's official web portal to all federal, state and local government web resources and services.